Voltar ao catálogo

STARLINK-4761

AtivoComunicaçõesVLEO
NORAD 53830·PAYLOAD·🇺🇸 United States

Lançado Sep 19, 2022 de Cape Canaveral Space Force Station

Loading…

Próximas Passagens (próximas 24 horas)

TLE

AtualizadoSource: CelesTrak SupGP

Época: Sep 14, 2026, 20:50 UTC

1 53830C 22114N   26257.86854167 -.00029529  00000+0 -87242-3 0  2577
2 53830  53.1592 166.2836 0001294  91.4359 296.6109 15.34405777    12

Acompanhe STARLINK-4761 em tempo real com AllMySat

Download on the App Store